Flag for U.S.A. Weather past 2 weeks in Vevay, Indiana, U.S.A.

Now
61 °F

Passing clouds.


Feels Like: 61 °F
Forecast: 44 / 68 °F
Wind: No wind

Location: Cincinnati / Northern Kentucky International Airport


UV Index: 3 (Moderate)

Visibility: 10 mi


Pressure: 30.28 "Hg

Humidity: 35%

Dew point: 33 °F

Location of VevayLocation

Historic Weather in Vevay

°F

Vevay temperature yesterday

Maximum temperature yesterday: 50 °F (at 4:52 PM)
Minimum temperature yesterday: 28 °F (at 4:52 AM)
Average temperature yesterday: 39 °F

Past Weeks' High & Low Weather Summary

 TemperatureHumidityPressure
High80 °F (Apr 13, 3:52 PM)100% (Apr 3, 7:52 AM)30.42 "Hg (Apr 3, 7:52 AM)
Low28 °F (Apr 16, 4:52 AM)26% (Apr 13, 5:52 PM)29.35 "Hg (Apr 7, 5:52 PM)
Average53 °F63%29.94 "Hg
* Reported Apr 2 7:52 PM — Apr 17 7:52 PM, Vevay, Weather by CustomWeather, © 2014

Note: Actual official high and low records may vary slightly from our data, if they occured in-between our weather recording intervals... More about our weather records

Advertising

Historic Weather Conditions — Data for Previous 24 hours

 ConditionsComfort  
Time TempWeatherWind HumidityBarometerVisibility
7:52 PM
Apr 17
59 °FScattered clouds.8 mph42%30.27 "Hg10 mi
6:52 PM65 °FScattered clouds.8 mph32%30.25 "Hg10 mi
5:52 PM66 °FPartly sunny.7 mph28%30.26 "Hg10 mi
4:52 PM66 °FPartly sunny.14 mph31%30.27 "Hg10 mi
3:52 PM66 °FPassing clouds.15 mph29%30.29 "Hg10 mi
2:52 PM65 °FPassing clouds.13 mph32%30.31 "Hg10 mi
1:52 PM64 °FPassing clouds.9 mph35%30.33 "Hg10 mi
12:52 PM62 °FScattered clouds.13 mph37%30.35 "Hg10 mi
11:52 AM60 °FPassing clouds.12 mph38%30.35 "Hg10 mi
10:52 AM56 °FPassing clouds.14 mph39%30.35 "Hg10 mi
9:52 AM53 °FPassing clouds.17 mph43%30.34 "Hg10 mi
8:52 AM47 °FScattered clouds.10 mph50%30.34 "Hg10 mi
7:52 AM38 °FPassing clouds.7 mph63%30.32 "Hg10 mi
6:52 AM38 °FPassing clouds.7 mph58%30.30 "Hg10 mi
5:52 AM38 °FPassing clouds.6 mph55%30.28 "Hg10 mi
4:52 AM39 °FPassing clouds.6 mph53%30.27 "Hg10 mi
3:52 AM39 °FPassing clouds.7 mph55%30.26 "Hg10 mi
2:52 AM41 °FPassing clouds.7 mph49%30.25 "Hg10 mi
1:52 AM40 °FPassing clouds.7 mph51%30.27 "Hg10 mi
12:52 AM41 °FPassing clouds.9 mph49%30.27 "Hg10 mi
11:52 PM
Apr 16
41 °FPassing clouds.7 mph49%30.27 "Hg10 mi
10:52 PM43 °FPassing clouds.7 mph45%30.27 "Hg10 mi
9:52 PM44 °FPassing clouds.7 mph41%30.26 "Hg10 mi
Weather by CustomWeather, © 2014

See weather overview